Retour au catalogue

STARLINK-5726

ActifCommunicationsVLEO
NORAD 55608·PAYLOAD·🇺🇸 United States

Lancé Feb 12, 2023 depuis Cape Canaveral Space Force Station

Loading…

Prochains Passages (prochaines 24 heures)

TLE

FraisSource: CelesTrak SupGP

Époque: Sep 15, 2026, 01:26 UTC

1 55608C 23020AR  26258.06020833 -.00043413  00000+0 -15725-2 0  2582
2 55608  43.0048   4.9317 0002361 281.4380 274.8606 15.27597434    18

Suivez STARLINK-5726 en temps réel avec AllMySat

Download on the App Store